Regional Weather Roundup
Issued by NWS Goodland, KS

Home | Current Version | Previous Version | Text Only | Print | Product List | Glossary Off
Versions: 1 2 3 4 5 6 7 8 9 10 11 12 13 14 15 16 17 18 19 20 21 22 23 24 25 26 27 28 29 30 31 32 33 34 35 36 37 38 39 40 41 42 43 44 45 46 47 48 49 50

000
ASUS43 KGLD 260508
RWRGLD

GOODLAND FORECAST AREA HOURLY WEATHER ROUNDUP
NATIONAL WEATHER SERVICE GOODLAND KS
1100 PM MDT MON JUL 25 2016

...OFFICIAL OBSERVATIONS...

CITY           SKY/WX    TMP DP  RH WIND       PRES   REMARKS
GOODLAND KS    PTCLDY    71  65  81 S9        30.16S
HILL CITY KS   PTCLDY    72  65  78 E3        30.13R
IMPERIAL NEB   CLOUDY    73  63  70 SE13      30.14R
MCCOOK NEB     PTCLDY    73  63  70 SE10      30.13R
AKRON CO       CLOUDY    69  61  75 SE15      30.18R
BURLINGTON CO  CLOUDY    72  63  73 SE14      30.18S
LIMON CO       NOT AVBL
$$

...UNOFFICIAL OBSERVATIONS...

CITY           SKY/WX    TMP DP  RH WIND       PRES   REMARKS
COLBY KS       CLEAR     73  68  83 SE12      30.17S
LENORA KS        N/A     71  32  23 MISG        N/A
NORTON KS      CLEAR     70  61  73 E3        30.13S
TRIBUNE KS     MOCLDY    72  68  88 SE7       30.18
YUMA CO          N/A     68  64  88 CALM        N/A
$$




USA.gov is the U.S. government's official web portal to all federal, state and local government web resources and services.